Location: Brienzwiler
(46.7508°N, 8.1014°E)
Time: 01:37:07
(UTC+00:00)

Cosmos 1812 Rocket - Pass Details

Date: 05 July 2020
Orbit: 605 x 633 km, 82.5° (Epoch: 11 August)

Event Time Altitude Azimuth Distance (km) Brightness Sun altitude
Rises 20:15:55 0° 348° (NNW) 2,881 8.1 -7.6°
Reaches altitude 10° 20:18:10 10° 345° (NNW) 1,970 7.2 -7.9°
Maximum altitude 20:22:28 64° 265° (W) 677 4.0 -8.4°
Drops below altitude 10° 20:26:43 10° 184° (S) 1,948 5.7 -8.9°
Enters shadow 20:28:10 - 182° (S) 2,533 6.3 -9.1°
